1535961600.15,43599,20.19,74406.8,13.55,6.91,7.11,0,*44
1535961601.39,43600,20.19,74404.8,13.55,7.55,7.77,0,*4E
1535961602.61,43601,20.19,74404.8,13.55,7.33,7.47,0,*4C
1535961603.85,43602,20.19,74402.8,13.51,7.19,7.29,0,*4B
1535961605.1,43603,20.19,74402.3,13.51,7.47,7.61,0,*4D
1535961606.31,43604,20.19,74400.5,13.53,7.87,8.01,0,*4D
1535961607.49,43605,20.19,74406.0,13.53,7.97,8.19,0,*44
1535961608.7,43606,20.19,74402.0,13.53,8.33,8.45,0,*4F
1535961609.93,43607,20.19,74402.3,13.53,8.29,8.41,0,*41
1535961611.16,43608,20.19,74400.8,13.53,8.41,8.51,0,*41
1535961612.37,43609,20.13,74402.3,13.53,8.41,8.65,0,*47
1535961613.57,43610,20.19,74402.0,13.55,8.45,8.79,0,*40
1535961614.8,43611,20.19,74402.0,13.57,8.01,8.37,0,*49
1535961616.03,43612,20.19,74404.5,13.55,8.33,8.83,0,*46
1535961617.25,43613,20.19,74404.5,13.57,8.23,8.65,0,*4C
1535961618.46,43614,20.13,74400.5,13.57,8.23,8.69,0,*47
1535961619.72,43615,20.19,74406.8,13.57,7.47,7.91,0,*43
1535961620.96,43616,20.19,74406.3,13.57,7.55,8.13,0,*46
1535961622.19,43617,20.19,74406.3,13.57,7.97,8.47,0,*48
1535961623.43,43618,20.19,74402.3,13.57,7.47,8.05,0,*4C
1535961624.68,43619,20.19,74404.0,13.55,7.23,7.65,0,*44
1535961625.9,43620,20.19,74404.0,13.57,7.59,8.15,0,*49
1535961627.11,43621,20.19,74404.5,13.59,7.73,8.27,0,*4F
1535961628.32,43622,20.19,74404.3,13.59,7.73,8.01,0,*48
1535961629.51,43623,20.19,74406.5,13.59,7.51,8.15,0,*4C
1535961630.69,43624,20.19,74404.0,13.59,7.37,8.01,0,*4E
1535961631.92,43625,20.13,74406.3,13.59,7.83,8.59,0,*4D
1535961633.16,43626,20.19,74410.5,13.59,7.91,8.59,0,*4D
1535961634.37,43627,20.19,74410.5,13.59,6.91,7.51,0,*4A
1535961635.58,43628,20.19,74408.8,13.63,7.19,8.05,0,*43
1535961636.78,43629,20.19,74410.5,13.63,7.41,8.33,0,*4A
1535961637.99,43630,20.19,74410.0,13.63,7.87,8.65,0,*4B
1535961639.25,43631,20.19,74410.0,13.65,7.61,8.51,0,*43
1535961640.51,43632,20.19,74410.5,13.69,7.95,8.71,0,*45
1535961641.75,43633,20.19,74408.8,13.69,7.47,8.27,0,*48
1535961642.98,43634,20.19,74404.0,13.71,7.61,8.37,0,*43
1535961644.16,43635,20.19,74408.0,13.75,7.97,8.65,0,*48
1535961645.34,43636,20.19,74410.5,13.75,7.97,8.45,0,*49
1535961646.58,43637,20.19,74406.0,13.77,7.77,8.09,0,*4C
1535961647.79,43638,20.19,74410.3,13.79,8.13,8.15,0,*4D
1535961649.03,43639,20.13,74400.8,13.81,8.15,8.37,0,*4D
1535961650.27,43640,20.19,74406.5,13.85,8.15,8.33,0,*43
1535961651.44,43641,20.19,74408.0,13.87,8.45,8.65,0,*46
1535961652.65,43642,20.13,74406.3,13.89,8.27,8.47,0,*4F
1535961653.89,43643,20.19,74406.5,13.91,8.15,8.41,0,*40
1535961655.13,43644,20.19,74406.5,13.93,8.13,8.37,0,*42
1535961656.37,43645,20.19,74406.8,13.93,7.61,7.77,0,*42
1535961657.6,43646,20.19,74404.5,13.93,7.83,7.65,0,*4E
1535961658.83,43647,20.19,74408.8,13.95,8.45,8.47,0,*43
1535961660.04,43648,20.19,74406.0,13.97,8.47,8.69,0,*40
1535961661.24,43649,20.13,74400.0,13.97,7.87,8.01,0,*4C
1535961662.45,43650,20.19,74406.0,13.99,7.33,7.59,0,*47
1535961663.68,43651,20.13,74400.3,13.99,7.55,7.65,0,*49
1535961664.94,43652,20.19,74404.5,13.99,7.23,7.11,0,*48
1535961666.17,43653,20.19,74404.0,13.99,7.23,7.01,0,*48
1535961667.34,43654,20.19,74406.3,14.01,7.37,7.01,0,*4C
1535961668.55,43655,20.19,74404.8,14.01,7.95,7.45,0,*45
1535961669.74,43656,20.19,74404.8,14.03,7.59,7.01,0,*44
1535961670.97,43657,20.19,74408.8,14.03,6.69,6.11,0,*47
1535961672.17,43658,20.19,74408.8,14.05,6.93,6.17,0,*4D
1535961673.39,43659,20.13,74410.3,14.05,6.17,5.23,0,*44
1535961674.63,43660,20.19,74412.3,14.05,6.51,5.55,0,*4D
1535961675.86,43661,20.13,74410.3,14.05,6.73,5.73,0,*48
1535961677.06,43662,20.19,74410.8,14.09,7.11,6.07,0,*42
1535961678.29,43663,20.19,74410.0,14.09,7.23,6.17,0,*43
1535961679.49,43664,20.19,74408.8,14.11,7.45,6.29,0,*40
1535961680.69,43665,20.19,74410.0,14.11,7.45,6.29,0,*41
1535961681.91,43666,20.19,74410.3,14.11,7.45,6.43,0,*4E
1535961683.11,43667,20.19,74408.0,14.13,7.59,6.69,0,*48
1535961684.31,43668,20.19,74408.8,14.15,7.05,6.25,0,*40
1535961685.57,43669,20.19,74408.8,14.15,7.15,6.35,0,*41
1535961686.77,43670,20.19,74408.8,14.15,6.83,6.21,0,*42
1535961688.01,43671,20.19,74406.3,14.17,6.47,5.81,0,*40
1535961689.25,43672,20.19,74410.0,14.19,6.53,5.77,0,*41
1535961690.49,43673,20.19,74408.3,14.21,6.43,5.71,0,*4C
1535961691.76,43674,20.19,74410.3,14.21,6.57,5.85,0,*45
1535961693.0,43675,20.19,74410.0,14.25,6.47,5.67,0,*4D
1535961694.22,43676,20.19,74416.3,14.25,6.07,5.23,0,*4A
1535961695.46,43677,20.19,74410.8,14.31,5.81,5.01,0,*43
1535961696.67,43678,20.19,74410.5,14.33,5.07,4.33,0,*40
1535961697.9,43679,20.19,74410.0,14.33,4.37,3.79,0,*4A
1535961699.14,43680,20.19,74408.3,14.33,4.71,4.11,0,*47
1535961700.35,43681,20.19,74412.3,14.37,4.53,3.93,0,*4F
1535961701.56,43682,20.19,74414.0,14.37,4.07,3.55,0,*47
1535961702.77,43683,20.19,74408.5,14.41,4.41,3.89,0,*44
1535961703.99,43684,20.19,74410.5,14.43,4.71,4.37,0,*40
1535961705.22,43685,20.19,74410.5,14.45,4.19,4.05,0,*48
1535961706.42,43686,20.19,74410.5,14.47,3.93,4.05,0,*4C
1535961707.63,43687,20.19,74410.3,14.49,3.59,3.89,0,*46
1535961708.83,43688,20.19,74412.3,14.53,3.19,3.63,0,*42
1535961710.06,43689,20.19,74408.3,14.55,3.29,3.53,0,*45
1535961711.32,43690,20.19,74410.8,14.55,2.39,2.59,0,*46
1535961712.59,43691,20.19,74410.8,14.59,2.47,2.51,0,*4A
1535961713.84,43692,20.19,74410.5,14.59,1.67,1.55,0,*4F
1535961715.09,43693,20.19,74408.5,14.59,1.67,1.47,0,*4D
1535961716.34,43694,20.19,74410.3,14.59,1.93,1.71,0,*44
1535961717.55,43695,20.19,74412.8,14.61,2.09,1.83,0,*43
1535961718.78,43696,20.19,74410.5,14.61,1.93,1.47,0,*48
1535961720.03,43697,20.19,74408.5,14.63,2.43,2.01,0,*44
1535961721.24,43698,20.19,74408.8,14.63,2.61,2.35,0,*4C
1535961722.47,43699,20.19,74412.0,14.63,2.59,2.35,0,*46
1535961723.7,43700,20.19,74408.3,14.67,3.11,2.99,0,*48
1535961724.92,43701,20.19,74412.8,14.67,2.99,2.77,0,*48
1535961726.18,43702,20.19,74408.0,14.67,2.51,2.39,0,*45
1535961727.43,43703,20.19,74406.5,14.67,3.37,3.23,0,*4F
1535961728.65,43704,20.19,74408.3,14.69,4.05,3.81,0,*48
1535961729.88,43705,20.19,74406.3,14.67,3.93,3.49,0,*4B
1535961731.11,43706,20.19,74406.8,14.71,4.07,3.53,0,*4E
1535961732.34,43707,20.19,74404.3,14.75,4.27,3.67,0,*4E
1535961733.53,43708,20.19,74404.8,14.75,4.49,4.11,0,*4F
1535961734.77,43709,20.19,74404.3,14.75,4.71,4.07,0,*42
1535961735.98,43710,20.19,74406.0,14.75,4.81,4.33,0,*42
1535961737.21,43711,20.19,74404.3,14.75,4.59,4.15,0,*42
1535961738.42,43712,20.19,74406.5,14.77,4.75,4.53,0,*4F
1535961739.6,43713,20.19,74406.3,14.77,4.53,4.53,0,*4A
1535961740.84,43714,20.19,74406.8,14.75,4.59,4.85,0,*4E
1535961742.02,43715,20.19,74404.0,14.77,5.07,5.07,0,*4C
1535961743.21,43716,20.19,74404.8,14.77,5.71,5.67,0,*48
1535961744.42,43717,20.19,74410.0,14.77,6.33,6.39,0,*44
1535961745.63,43718,20.19,74406.5,14.79,6.93,6.97,0,*4B
1535961746.81,43719,20.19,74406.0,14.81,7.09,7.09,0,*49
1535961748.04,43720,20.19,74408.3,14.81,6.73,6.87,0,*48
1535961749.26,43721,20.19,74408.0,14.81,6.25,6.51,0,*41
1535961750.52,43722,20.19,74406.0,14.79,6.43,6.65,0,*42
1535961751.75,43723,20.19,74404.8,14.81,6.43,6.65,0,*44
1535961752.98,43724,20.19,74406.8,14.79,6.73,7.05,0,*40
1535961754.19,43725,20.19,74408.5,14.79,7.09,7.41,0,*4D
1535961755.39,43726,20.19,74408.0,14.81,7.29,7.65,0,*4D
1535961756.61,43727,20.19,74406.3,14.81,7.29,7.61,0,*48
1535961757.82,43728,20.19,74404.0,14.81,6.97,7.19,0,*4C
1535961759.0,43729,20.19,74406.3,14.81,6.97,7.33,0,*45
1535961760.27,43730,20.19,74408.0,14.79,7.23,7.77,0,*44
1535961761.45,43731,20.19,74406.3,14.81,7.09,7.51,0,*4E
1535961762.66,43732,20.19,74406.8,14.79,7.09,7.51,0,*4A
1535961763.87,43733,20.19,74406.8,14.79,6.97,7.55,0,*49
1535961765.1,43734,20.19,74406.3,14.81,7.19,7.83,0,*45
1535961766.34,43735,20.19,74406.8,14.79,7.05,7.61,0,*42
1535961767.54,43736,20.19,74404.3,14.79,6.83,7.41,0,*4C
1535961768.75,43737,20.19,74410.0,14.79,7.09,7.55,0,*4B
1535961769.93,43738,20.19,74408.8,14.77,6.83,7.37,0,*4D
1535961771.14,43739,20.19,74408.8,14.77,6.39,6.93,0,*42
1535961772.35,43740,20.19,74406.5,14.77,6.35,6.93,0,*40
1535961773.55,43741,20.19,74406.3,14.75,6.11,6.79,0,*41
1535961774.78,43742,20.19,74404.8,14.75,5.95,6.53,0,*45
1535961775.98,43743,20.19,74408.0,14.75,5.67,6.29,0,*44
1535961777.19,43744,20.19,74408.3,14.71,5.63,6.33,0,*48
1535961778.38,43745,20.19,74412.0,14.69,5.63,6.25,0,*47
1535961779.61,43746,20.19,74410.0,14.69,5.73,6.39,0,*48
1535961780.82,43747,20.19,74410.3,14.69,4.41,4.93,0,*4B
1535961782.02,43748,20.19,74410.5,14.67,4.27,4.89,0,*41
1535961783.23,43749,20.19,74408.5,14.65,4.27,4.79,0,*4D
1535961784.45,43750,20.19,74408.8,14.61,4.63,5.11,0,*4E
1535961785.66,43751,20.19,74408.0,14.61,4.57,5.01,0,*49
1535961786.88,43752,20.19,74406.5,14.57,4.67,5.07,0,*4A
1535961788.12,43753,20.19,74406.3,14.57,4.59,4.97,0,*4E
1535961789.35,43754,20.19,74404.8,14.55,4.75,5.15,0,*4E
1535961790.58,43755,20.19,74406.8,14.53,5.51,5.89,0,*4B
1535961791.79,43756,20.19,74406.8,14.53,5.73,6.21,0,*49
1535961793.0,43757,20.19,74406.3,14.53,5.95,6.35,0,*45
1535961794.2,43758,20.19,74406.5,14.53,5.55,6.07,0,*47
1535961795.42,43759,20.19,74408.5,14.53,5.99,6.47,0,*42
1535961796.67,43760,20.19,74408.0,14.49,6.17,6.65,0,*46
1535961797.92,43761,20.19,74406.8,14.49,5.73,6.17,0,*43
1535961799.13,43762,20.19,74408.0,14.47,5.99,6.39,0,*46
1535961800.36,43763,20.19,74406.3,14.49,6.03,6.39,0,*49
1535961801.56,43764,20.19,74412.8,14.49,6.75,6.97,0,*4B
1535961802.74,43765,20.19,74406.5,14.47,6.83,7.05,0,*47
1535961803.97,43766,20.19,74404.0,14.49,6.97,7.11,0,*4A
1535961805.15,43767,20.19,74408.8,14.47,7.09,7.37,0,*47
1535961806.33,43768,20.19,74404.5,14.47,7.37,7.51,0,*45
1535961807.54,43769,20.19,74410.5,14.47,7.51,7.77,0,*40
1535961808.77,43770,20.19,74408.0,14.49,7.77,8.01,0,*4C
1535961810.0,43771,20.19,74412.0,14.49,7.77,7.97,0,*4D
1535961811.23,43772,20.19,74410.8,14.49,7.77,7.97,0,*4E
1535961812.43,43773,20.19,74414.0,14.49,7.51,7.59,0,*49
1535961813.6,43774,20.19,74410.5,14.47,7.37,7.41,0,*49
1535961814.78,43775,20.19,74410.0,14.47,7.51,7.55,0,*4D
1535961816.02,43776,20.19,74404.8,14.47,7.95,7.95,0,*4A
1535961817.24,43777,20.19,74404.3,14.49,7.59,7.65,0,*4A
1535961818.45,43778,20.19,74404.0,14.47,7.61,7.51,0,*47
1535961819.69,43779,20.19,74406.8,14.47,7.95,7.77,0,*49
1535961820.87,43780,20.19,74404.8,14.47,7.79,7.59,0,*41
1535961822.05,43781,20.19,74408.8,14.47,7.51,7.29,0,*4D
1535961823.3,43782,20.19,74410.3,14.45,7.87,7.65,0,*4F
1535961824.5,43783,20.19,74404.3,14.45,7.37,7.05,0,*43
1535961825.67,43784,20.19,74410.3,14.43,7.33,7.01,0,*42
1535961826.9,43785,20.19,74408.0,14.43,7.15,6.91,0,*4F
1535961828.15,43786,20.19,74408.0,14.41,7.87,7.65,0,*4F
1535961829.36,43787,20.19,74406.8,14.39,8.13,7.97,0,*4E
1535961830.59,43788,20.19,74406.8,14.41,8.13,7.97,0,*4E
1535961831.81,43789,20.19,74406.5,14.41,7.97,7.87,0,*4D
1535961832.99,43790,20.19,74404.5,14.39,8.09,8.01,0,*43
1535961834.2,43791,20.19,74404.3,14.39,7.47,7.55,0,*49
1535961835.47,43792,20.19,74400.8,14.37,7.61,7.73,0,*44
1535961836.73,43793,20.19,74400.3,14.41,8.13,8.37,0,*41
1535961837.96,43794,20.19,74402.5,14.37,8.61,8.75,0,*44
1535961839.17,43795,20.19,74404.8,14.37,8.45,8.61,0,*46
1535961840.38,43796,20.19,74402.8,14.37,7.37,7.51,0,*43
1535961841.58,43797,20.19,74406.8,14.35,7.01,7.27,0,*44
1535961842.81,43798,20.19,74404.3,14.33,6.33,6.65,0,*4A
1535961844.03,43799,20.19,74404.8,14.31,7.11,7.29,0,*41
1535961845.27,43800,20.19,74404.5,14.25,6.93,7.27,0,*4E
1535961846.48,43801,20.19,74406.8,14.25,7.29,7.55,0,*4A
1535961847.71,43802,20.19,74406.5,14.23,7.61,7.91,0,*4B
1535961848.92,43803,20.19,74406.5,14.23,7.95,8.19,0,*4E
1535961850.13,43804,20.19,74404.5,14.21,7.79,8.15,0,*45
1535961851.37,43805,20.19,74406.5,14.23,7.69,7.95,0,*40
1535961852.55,43806,20.19,74404.5,14.23,7.79,8.15,0,*45
1535961853.79,43807,20.19,74404.8,14.25,8.01,8.33,0,*46
1535961855.0,43808,20.19,74406.5,14.23,8.27,8.47,0,*48
1535961856.21,43809,20.19,74404.0,14.23,8.15,8.37,0,*4F
1535961857.47,43810,20.19,74404.3,14.21,8.33,8.51,0,*41
1535961858.68,43811,20.19,74406.3,14.23,8.51,8.69,0,*4D
1535961859.91,43812,20.19,74402.3,14.23,8.51,8.59,0,*4D
1535961861.14,43813,20.19,74404.3,14.25,8.87,9.11,0,*4C
1535961862.33,43814,20.19,74402.0,14.27,8.79,9.07,0,*4F
1535961863.57,43815,20.19,74404.8,14.25,8.19,8.33,0,*4C
1535961864.83,43816,20.19,74406.0,14.25,8.55,8.71,0,*41
1535961866.06,43817,20.19,74404.5,14.25,8.55,8.65,0,*45
1535961867.3,43818,20.19,74404.3,14.25,8.51,8.61,0,*4A
1535961868.53,43819,20.19,74408.0,14.25,8.33,8.45,0,*49
1535961869.77,43820,20.19,74406.0,14.25,8.55,8.79,0,*4C
1535961871.0,43821,20.19,74404.0,14.25,8.45,8.55,0,*42
1535961872.24,43822,20.19,74408.0,14.27,8.41,8.51,0,*43
1535961873.45,43823,20.19,74406.8,14.25,8.09,8.23,0,*49
1535961874.7,43824,20.19,74404.8,14.25,8.13,8.29,0,*4F
1535961875.94,43825,20.19,74404.8,14.25,8.79,8.97,0,*47
1535961877.17,43826,20.19,74402.8,14.25,8.61,8.71,0,*45
1535961878.38,43827,20.19,74402.8,14.27,8.55,8.61,0,*40
1535961879.56,43828,20.19,74402.8,14.27,8.45,8.65,0,*4A
1535961880.76,43829,20.19,74404.5,14.25,8.61,8.79,0,*42
1535961882.03,43830,20.19,74404.3,14.25,9.01,9.19,0,*4A
1535961883.24,43831,20.19,74404.8,14.25,8.87,9.07,0,*4B
1535961884.5,43832,20.19,74404.5,14.25,9.19,9.39,0,*43
1535961885.74,43833,20.19,74406.0,14.27,9.01,9.19,0,*4B
1535961886.94,43834,20.19,74400.5,14.25,8.65,8.65,0,*47
1535961888.17,43835,20.19,74404.8,14.27,8.13,8.33,0,*46
1535961889.35,43836,20.19,74404.8,14.31,7.97,8.05,0,*44
1535961890.59,43837,20.19,74402.3,14.25,8.01,8.13,0,*47
1535961891.79,43838,20.19,74406.0,14.25,7.97,7.97,0,*4B
1535961893.05,43839,20.19,74406.3,14.25,7.65,7.73,0,*4D
1535961894.31,43840,20.19,74406.5,14.25,7.77,7.83,0,*4F
1535961895.57,43841,20.19,74402.5,14.21,7.91,7.95,0,*45
1535961896.81,43842,20.19,74404.5,14.21,7.59,7.69,0,*41
1535961898.04,43843,20.19,74404.8,14.19,8.13,8.23,0,*4B
1535961899.29,43844,20.19,74404.8,14.19,7.95,7.87,0,*4C
1535961900.52,43845,20.19,74404.3,14.17,7.83,7.91,0,*43
1535961901.75,43846,20.19,74402.8,14.17,7.73,7.73,0,*43
1535961902.95,43847,20.19,74400.0,14.15,7.97,8.05,0,*44
1535961904.21,43848,20.19,74406.5,14.15,8.37,8.41,0,*4E
1535961905.4,43849,20.19,74404.0,14.13,8.65,8.71,0,*4D
1535961906.61,43850,20.19,74406.3,14.15,8.87,8.87,0,*46
1535961907.82,43851,20.19,74404.8,14.13,8.71,8.83,0,*4C
1535961909.07,43852,20.19,74404.3,14.15,8.97,8.97,0,*44
1535961910.27,43853,20.19,74402.5,14.13,8.93,9.03,0,*4B
1535961911.5,43854,20.19,74406.0,14.15,9.15,9.33,0,*46
1535961912.76,43855,20.19,74404.5,14.15,9.39,9.53,0,*4F
1535961914.01,43856,20.19,74404.8,14.15,9.49,9.61,0,*4A
1535961915.24,43857,20.19,74404.3,14.15,9.29,9.39,0,*40
1535961916.47,43858,20.19,74406.8,14.15,9.03,9.19,0,*45
1535961917.71,43859,20.19,74402.5,14.13,9.39,9.53,0,*45
1535961918.96,43860,20.19,74402.3,14.15,8.75,8.93,0,*4D
1535961920.19,43861,20.19,74402.8,14.17,8.29,8.33,0,*4D
1535961921.44,43862,20.19,74404.3,14.15,8.75,8.93,0,*4F
1535961922.66,43863,20.19,74400.0,14.13,8.97,8.97,0,*40
1535961923.89,43864,20.19,74400.3,14.13,8.51,8.75,0,*41
1535961925.07,43865,20.19,74398.0,14.13,8.19,8.15,0,*4A
1535961926.3,43866,20.19,74402.3,14.13,8.59,8.71,0,*4F
1535961927.5,43867,20.19,74400.8,14.13,8.71,8.87,0,*4D
1535961928.73,43868,20.19,74400.3,14.13,8.51,8.59,0,*43
1535961929.96,43869,20.19,74402.3,14.11,8.47,8.45,0,*4A
1535961931.14,43870,20.19,74396.3,14.09,8.45,8.61,0,*4F
1535961932.37,43871,20.19,74398.8,14.11,8.83,8.93,0,*40
1535961933.58,43872,20.19,74400.0,14.09,8.79,8.93,0,*4F
1535961934.78,43873,20.19,74402.5,14.09,8.55,8.69,0,*45
1535961935.99,43874,20.19,74398.8,14.09,8.59,8.79,0,*4F
1535961937.17,43875,20.19,74398.8,14.05,8.69,8.87,0,*40
1535961938.35,43876,20.19,74400.0,14.05,8.65,8.87,0,*4F
1535961939.57,43877,20.19,74402.5,14.03,8.93,9.07,0,*48
1535961940.81,43878,20.19,74400.3,14.05,9.19,9.35,0,*43
1535961942.02,43879,20.19,74402.8,14.05,9.19,9.47,0,*47
1535961943.21,43880,20.19,74402.8,14.05,9.47,9.67,0,*48
1535961944.41,43881,20.19,74404.0,14.11,9.29,9.67,0,*44
1535961945.63,43882,20.19,74398.8,14.11,9.29,9.61,0,*41
1535961946.85,43883,20.19,74402.5,14.09,8.93,9.11,0,*4E
1535961948.08,43884,20.19,74402.8,14.11,9.11,9.25,0,*4C
1535961949.3,43885,20.19,74402.5,14.09,9.35,9.57,0,*47
1535961950.56,43886,20.19,74400.0,14.11,9.35,9.49,0,*42
1535961951.79,43887,20.19,74402.3,14.11,8.93,9.03,0,*40
1535961952.96,43888,20.19,74402.3,14.09,9.21,9.29,0,*46
1535961954.17,43889,20.19,74398.0,14.09,8.79,9.01,0,*41
1535961955.42,43890,20.19,74400.3,14.11,9.11,9.15,0,*4A
1535961956.64,43891,20.19,74396.5,14.11,9.25,9.39,0,*42
1535961957.89,43892,20.19,74400.0,14.11,9.15,9.35,0,*4E
1535961959.09,43893,20.19,74398.5,14.09,9.11,9.25,0,*43
1535961960.32,43894,20.19,74400.0,14.11,8.83,9.01,0,*41
1535961961.51,43895,20.19,74400.3,14.09,8.83,9.03,0,*4B
1535961962.71,43896,20.19,74402.3,14.09,8.59,8.69,0,*42
1535961963.92,43897,20.19,74402.5,14.09,8.55,8.61,0,*47
1535961965.12,43898,20.19,74400.8,14.09,8.93,9.03,0,*47
1535961966.33,43899,20.19,74402.5,14.05,8.65,8.75,0,*43
1535961967.55,43900,20.19,74402.0,14.05,8.59,8.75,0,*4D
1535961968.76,43901,20.19,74400.0,14.05,8.69,8.89,0,*4C
1535961969.98,43902,20.19,74400.0,14.05,8.75,8.97,0,*4D
1535961971.19,43903,20.19,74404.3,14.05,8.79,8.97,0,*40
1535961972.44,43904,20.19,74402.0,14.03,8.75,8.97,0,*4D
1535961973.68,43905,20.19,74402.3,14.03,8.93,8.97,0,*44
1535961974.89,43906,20.19,74402.0,14.03,8.83,8.87,0,*47
1535961976.12,43907,20.19,74398.3,14.03,8.83,8.93,0,*43
1535961977.31,43908,20.19,74398.5,14.03,8.61,8.65,0,*49
1535961978.52,43909,20.19,74400.3,14.01,8.71,8.83,0,*43
1535961979.75,43910,20.19,74400.3,13.99,8.51,8.69,0,*4B
1535961981.01,43911,20.19,74398.3,13.99,8.89,8.93,0,*4A
1535961982.24,43912,20.19,74400.3,13.99,8.89,9.03,0,*41
1535961983.5,43913,20.19,74398.0,13.99,9.01,9.11,0,*42
1535961984.71,43914,20.19,74402.3,14.01,8.93,9.03,0,*4A
1535961985.97,43915,20.19,74396.5,13.99,8.89,9.01,0,*44
1535961987.2,43916,20.19,74394.8,13.99,8.93,9.03,0,*4E
1535961988.41,43917,20.19,74398.0,13.99,9.25,9.29,0,*4B
1535961989.65,43918,20.19,74398.0,13.99,9.03,9.19,0,*43
1535961990.87,43919,20.19,74396.8,13.99,9.61,9.71,0,*48
1535961992.08,43920,20.19,74398.3,14.01,9.49,9.67,0,*49
1535961993.35,43921,20.19,74394.3,13.99,8.89,8.93,0,*49
1535961994.55,43922,20.19,74394.3,14.01,9.15,9.29,0,*48
1535961995.78,43923,20.19,74398.5,13.99,9.11,9.25,0,*47
1535961996.98,43924,20.19,74396.0,14.01,9.25,9.39,0,*4C
1535961998.19,43925,20.19,74398.0,14.01,9.25,9.35,0,*41
1535961999.4,43926,20.19,74400.8,14.01,9.49,9.71,0,*48
1535962000.61,43927,20.19,74402.0,14.03,9.91,10.05,0,*75
1535962001.85,43928,20.19,74400.5,14.03,9.99,10.19,0,*7F
1535962003.05,43929,20.19,74402.3,14.05,9.53,9.75,0,*4C
1535962004.27,43930,20.19,74400.8,14.05,9.85,9.99,0,*4D
1535962005.48,43931,20.19,74398.5,14.05,9.85,9.99,0,*4C
1535962006.7,43932,20.19,74400.3,14.09,9.35,9.61,0,*4F
1535962007.91,43933,20.19,74396.5,14.09,9.81,9.99,0,*46
1535962009.14,43934,20.19,74398.5,14.11,9.67,9.77,0,*40
1535962010.33,43935,20.19,74402.8,14.09,9.29,9.39,0,*48
1535962011.56,43936,20.19,74400.3,14.11,9.03,9.15,0,*44
1535962012.79,43937,20.19,74402.8,14.11,9.67,9.89,0,*42
1535962014.01,43938,20.19,74402.5,14.11,9.77,9.99,0,*4D
1535962015.22,43939,20.19,74400.5,14.13,9.49,9.63,0,*46
1535962016.41,43940,20.19,74400.3,14.13,9.29,9.39,0,*41
1535962017.62,43941,20.19,74400.3,14.13,9.03,9.19,0,*4A
1535962018.85,43942,20.19,74398.3,14.13,9.61,9.81,0,*4C
1535962020.1,43943,20.19,74398.8,14.15,9.81,10.05,0,*71
1535962021.31,43944,20.19,74402.5,14.13,9.49,9.71,0,*4F
1535962022.49,43945,20.19,74400.5,14.13,9.95,10.09,0,*78
1535962023.72,43946,20.19,74400.3,14.15,9.63,9.81,0,*4C
1535962024.93,43947,20.19,74402.8,14.15,9.71,9.91,0,*4F
1535962026.19,43948,20.19,74402.8,14.15,9.61,9.81,0,*40
1535962027.42,43949,20.19,74404.8,14.15,9.15,9.25,0,*4C
1535962028.66,43950,20.19,74400.0,14.19,8.89,9.15,0,*4F
1535962029.86,43951,20.19,74400.3,14.17,8.97,9.29,0,*40
1535962031.1,43952,20.19,74404.5,14.19,9.01,9.21,0,*4B
1535962032.33,43953,20.19,74404.5,14.17,8.89,9.19,0,*4E
1535962033.51,43954,20.19,74406.3,14.17,9.07,9.21,0,*45
1535962034.76,43955,20.19,74404.8,14.19,9.11,9.35,0,*48
1535962035.99,43956,20.19,74402.8,14.17,9.11,9.35,0,*45
1535962037.16,43957,20.19,74404.3,14.17,9.29,9.63,0,*4C
1535962038.39,43958,20.19,74404.3,14.19,9.25,9.61,0,*43
1535962039.59,43959,20.19,74402.8,14.19,9.33,9.67,0,*43
1535962040.81,43960,20.19,74402.5,14.21,9.99,10.33,0,*7B
1535962042.04,43961,20.19,74402.8,14.23,9.81,10.13,0,*73
1535962043.23,43962,20.19,74406.0,14.23,9.75,10.17,0,*7F
1535962044.47,43963,20.19,74400.3,14.25,9.77,10.17,0,*7A
1535962045.72,43964,20.19,74400.3,14.25,9.75,10.19,0,*71
1535962046.93,43965,20.19,74402.0,14.27,9.21,9.85,0,*4E
1535962048.11,43966,20.19,74400.3,14.27,9.07,9.63,0,*41
1535962049.3,43967,20.19,74400.0,14.31,8.79,9.33,0,*4A
1535962050.53,43968,20.19,74398.5,14.33,8.47,9.07,0,*4D
1535962051.77,43969,20.19,74398.5,14.31,8.55,9.11,0,*4A
1535962052.98,43970,20.19,74400.3,14.31,8.27,8.93,0,*4C
1535962054.2,43971,20.19,74402.8,14.31,8.59,9.21,0,*4C
1535962055.4,43972,20.19,74400.8,14.31,8.01,8.59,0,*4C
1535962056.58,43973,20.19,74404.8,14.31,8.05,8.69,0,*4A
1535962057.77,43974,20.19,74404.5,14.31,7.55,8.15,0,*4C
1535962059.03,43975,20.19,74408.0,14.33,7.73,8.37,0,*4B
1535962060.24,43976,20.19,74410.3,14.31,7.97,8.59,0,*48
1535962061.45,43977,20.19,74408.8,14.31,8.05,8.93,0,*4B
1535962062.66,43978,20.19,74406.5,14.31,8.01,8.93,0,*40
1535962063.89,43979,20.19,74404.3,14.33,7.15,8.09,0,*4A
1535962065.12,43980,20.19,74402.0,14.33,7.37,8.41,0,*40
1535962066.37,43981,20.19,74404.3,14.33,7.83,8.71,0,*4D
1535962067.61,43982,20.19,74402.8,14.33,7.73,8.69,0,*48
1535962068.84,43983,20.19,74402.8,14.33,8.09,8.93,0,*4E
1535962070.1,43984,20.19,74402.0,14.33,7.83,8.51,0,*4A
1535962071.33,43985,20.19,74404.3,14.33,7.95,8.69,0,*47
1535962072.54,43986,20.19,74406.5,14.33,8.15,8.79,0,*42
1535962073.72,43987,20.19,74406.5,14.35,8.05,8.61,0,*4D
1535962074.9,43988,20.19,74402.8,14.35,7.41,8.09,0,*43
1535962076.13,43989,20.19,74404.5,14.35,7.23,7.83,0,*4B
1535962077.34,43990,20.19,74404.5,14.35,7.23,7.79,0,*46
1535962078.54,43991,20.19,74406.0,14.35,6.69,7.33,0,*46
1535962079.77,43992,20.19,74406.8,14.31,6.53,7.11,0,*48
1535962080.95,43993,20.19,74408.0,14.31,6.75,7.45,0,*4C
1535962082.19,43994,20.19,74402.8,14.31,7.19,7.87,0,*4E
1535962083.37,43995,20.19,74406.0,14.31,7.33,7.97,0,*46
1535962084.58,43996,20.19,74410.5,14.31,7.65,8.27,0,*42
1535962085.83,43997,20.19,74408.5,14.25,7.87,8.51,0,*4B
1535962087.09,43998,20.19,74406.0,14.25,8.33,8.97,0,*4E
1535962088.28,43999,20.19,74408.0,14.27,8.87,9.47,0,*4E
1535962089.52,44000,20.19,74408.8,14.31,9.01,9.49,0,*46
1535962090.76,44001,20.19,74408.8,14.31,9.01,9.61,0,*4D
1535962092.0,44002,20.19,74406.5,14.33,8.79,9.35,0,*43
1535962093.2,44003,20.19,74400.5,14.33,8.61,9.25,0,*4A
1535962094.43,44004,20.19,74400.0,14.33,8.51,9.03,0,*4A
1535962095.67,44005,20.19,74402.0,14.33,8.97,9.47,0,*41
1535962096.88,44006,20.19,74404.5,14.35,8.47,9.03,0,*49
1535962098.14,44007,20.19,74404.0,14.33,8.97,9.49,0,*4D
1535962099.37,44008,20.19,74406.3,14.35,8.59,8.97,0,*44
1535962100.54,44009,20.19,74406.5,14.35,8.61,9.07,0,*46
1535962101.81,44010,20.19,74406.3,14.37,9.01,9.49,0,*41
1535962103.05,44011,20.19,74408.8,14.35,9.15,9.49,0,*47
1535962104.25,44012,20.19,74406.0,14.37,9.21,9.63,0,*49
1535962105.46,44013,20.19,74404.5,14.35,9.19,9.47,0,*47
1535962106.71,44014,20.19,74404.8,14.37,9.49,9.75,0,*46
1535962107.98,44015,20.19,74406.0,14.37,9.39,9.81,0,*4B
1535962109.18,44016,20.19,74402.0,14.39,8.93,9.21,0,*4D
1535962110.39,44017,20.19,74404.3,14.39,8.79,9.11,0,*4B
1535962111.6,44018,20.19,74404.5,14.39,9.21,9.57,0,*4A
1535962112.78,44019,20.19,74406.5,14.39,9.67,9.99,0,*4B
1535962113.99,44020,20.19,74408.0,14.39,9.25,9.53,0,*41
1535962115.2,44021,20.19,74410.0,14.39,9.15,9.47,0,*46
1535962116.4,44022,20.19,74410.0,14.39,8.93,9.33,0,*49
1535962117.61,44023,20.19,74406.0,14.39,9.53,9.91,0,*4D
1535962118.82,44024,20.19,74404.3,14.39,9.33,9.53,0,*42
1535962120.05,44025,20.19,74404.3,14.41,9.11,9.43,0,*4D
1535962121.26,44026,20.19,74406.0,14.39,9.33,9.61,0,*41
1535962122.44,44027,20.19,74406.5,14.39,9.71,9.99,0,*41